This demonstration page uses our WeatherBlox Daily Observations layout. Learn more.

Left ArrowRight Arrow

Hourly Observations for July 21, 2016

Temp ( °F °C ) Dew Point ( °F °C ) Humidity (%) Winds ( mph kmh ) Pressure ( in mb ) Visibility ( mi km ) Precip ( " mm )
12:51 am 00:51 Clear 78 25.6 65 18.3 64 64 ESE 6 9 29.88 1012 10 16 0.00 0.00
1:51 am 01:51 Clear 77 25 63 17.2 62 62 SE 3 6 29.88 1012 10 16 0.00 0.00
2:51 am 02:51 Clear 75 23.9 66 18.9 74 74 Calm 29.89 1012 10 16 0.00 0.00
3:51 am 03:51 Clear 74 23.3 67 19.4 79 79 NNE 6 9 29.88 1012 10 16 0.00 0.00
4:51 am 04:51 Clear 73 22.8 66 18.9 79 79 Calm 29.91 1013 10 16 0.00 0.00
5:51 am 05:51 Sunny 73 22.8 66 18.9 79 79 Calm 29.92 1013 10 16 0.00 0.00
6:51 am 06:51 Sunny 77 25 66 18.9 69 69 NW 6 9 29.93 1013 10 16 0.00 0.00
7:51 am 07:51 undefined 82 27.8 62 16.7 51 51 Calm 29.94 1014 10 16 0.00 0.00
8:51 am 08:51 Sunny 87 30.6 60 15.6 40 40 Calm 29.94 1014 10 16 0.00 0.00
9:51 am 09:51 Sunny 90 32.2 59 15 35 35 VRB 3 6 29.93 1014 10 16 0.00 0.00
10:51 am 10:51 Sunny 95 35 57 13.9 28 28 SE 6 9 29.93 1013 10 16 0.00 0.00
11:51 am 11:51 Sunny 96 35.6 55 12.8 25 25 VRB 6 9 29.91 1013 10 16 0.00 0.00
12:51 pm 12:51 Sunny 99 37.2 54 12.2 22 22 Calm 29.88 1012 10 16 0.00 0.00
1:51 pm 13:51 Sunny 101 38.3 51 10.6 19 19 S 3 6 29.85 1011 10 16 0.00 0.00
2:51 pm 14:51 Sunny 103 39.4 49 9.4 16 16 WSW 13 20 29.82 1010 10 16 0.00 0.00
3:11 pm 15:11 Sunny 102 38.9 52 11.1 19 19 W 20 31 29.65 1004 10 16 0.00 0.00
3:51 pm 15:51 Sunny 101 38.3 54 12.2 21 21 W 16 26 29.81 1009 10 16 0.00 0.00
4:51 pm 16:51 Sunny 101 38.3 54 12.2 21 21 NW 13 20 29.78 1009 10 16 0.00 0.00
5:51 pm 17:51 Sunny 101 38.3 51 10.6 19 19 WNW 15 24 29.79 1009 10 16 0.00 0.00
6:51 pm 18:51 Sunny 98 36.7 51 10.6 20 20 W 15 24 29.80 1009 10 16 0.00 0.00
7:51 pm 19:51 Clear 94 34.4 56 13.3 28 28 WNW 12 19 29.82 1010 10 16 0.00 0.00
8:51 pm 20:51 Clear 92 33.3 58 14.4 32 32 WNW 8 13 29.83 1010 10 16 0.00 0.00
9:51 pm 21:51 Mostly Cloudy 93 33.9 53 11.7 26 26 SE 21 33 29.88 1012 10 16 0.00 0.00
9:59 pm 21:59 Mostly Cloudy with Nearby Thunderstorms 90 32.2 55 12.8 31 31 SE 23 37 29.83 1010 10 16 0.00 0.00
10:40 pm 22:40 Cloudy with Thunderstorms 81 27.2 62 16.7 53 53 SSE 12 19 29.94 1014 10 16 0.00 0.03
10:51 pm 22:51 Cloudy with Thunderstorms 84 28.9 59 15 43 43 S 12 19 29.97 1015 10 16 0.00 0.03
11:31 pm 23:31 Partly Cloudy with Nearby Thunderstorms 77 25 65 18.3 66 66 SSE 10 17 29.97 1015 10 16 0.01 0.25
11:51 pm 23:51 Mostly Cloudy with Nearby Thunderstorms 78 25.6 64 17.8 62 62 SE 14 22 29.98 1015 10 16 0.01 0.25

Powered by AerisWeather